Weather History for Winchester, VA

Change the Weather History Date:

Tuesday, December 27, 2011

  Actual Average Record
Temperature  
Mean Temperature 38 °F -  
Max Temperature 42 °F 41 °F 62 °F (2008)
Min Temperature 35 °F 25 °F 4 °F (1983)
Degree Days  
Heating Degree Days 26    
Moisture  
Dew Point 34 °F    
Average Humidity 88    
Maximum Humidity 100    
Minimum Humidity 66    
Precipitation  
Precipitation 0.28 in - - ()
Sea Level Pressure  
Sea Level Pressure 29.74 in    
Wind  
Wind Speed 5 mph (South)    
Max Wind Speed 16 mph    
Max Gust Speed 32 mph    
Visibility 8 miles    
Events Fog , Rain    
Averages and records for this station are not official NWS values.
T = Trace of Precipitation, MM = Missing Value Source: NWS Daily Summary

Daily Weather History Graph

Daily Weather History Graph

Search for Another Location

Airport:

Trip Planner

Search our weather history database for the weather conditions in past years. The results will help you decide how hot, cold, wet, or windy it might be!

Date:

Astronomy

Dec. 27, 2011 Rise Set
Actual Time 7:30 AM EST 4:56 PM EST
Civil Twilight 7:00 AM EST 5:26 PM EST
Nautical Twilight 6:27 AM EST 6:00 PM EST
Astronomical Twilight 5:54 AM EST 6:32 PM EST
Moon 9:26 AM EST (12/27) 8:26 PM EST (12/27)
Length of Visible Light 10h 26m
Length of Day
9h 25m
Waxing Crescent, 11% of the Moon is Illuminated
Dec 27
Waxing Crescent
Jan 1
First Quarter
Jan 9
Full
Jan 16
Last Quarter
Jan 23
New

Hourly Weather History & Observations

Time (EST) Temp. Windchill Dew Point Humidity Pressure Visibility Wind Dir Wind Speed Gust Speed Precip Events Conditions
12:15 AM 37.4 °F 32.8 °F 30.2 °F 75% 30.15 in 10.0 mi South 5.8 mph - N/A   Clear
12:35 AM 37.4 °F 32.8 °F 30.2 °F 75% 30.15 in 10.0 mi South 5.8 mph - N/A   Scattered Clouds
12:55 AM 35.6 °F - 30.2 °F 81% 30.14 in 10.0 mi Calm Calm - N/A   Clear
1:15 AM 35.6 °F - 30.2 °F 81% 30.13 in 10.0 mi Calm Calm - N/A   Scattered Clouds
1:35 AM 35.6 °F 32.8 °F 30.2 °F 81% 30.13 in 10.0 mi SW 3.5 mph - N/A   Scattered Clouds
1:55 AM 35.6 °F 32.8 °F 30.2 °F 81% 30.11 in 10.0 mi SSW 3.5 mph - N/A   Clear
2:15 AM 35.6 °F 31.7 °F 28.4 °F 75% 30.11 in 10.0 mi South 4.6 mph - N/A   Scattered Clouds
2:35 AM 37.4 °F 32.8 °F 30.2 °F 75% 30.10 in 10.0 mi South 5.8 mph - N/A   Scattered Clouds
2:55 AM 37.4 °F 34.9 °F 30.2 °F 75% 30.09 in 10.0 mi South 3.5 mph - N/A   Scattered Clouds
3:15 AM 37.4 °F 32.8 °F 30.2 °F 75% 30.07 in 10.0 mi South 5.8 mph - N/A   Clear
3:35 AM 37.4 °F 33.8 °F 28.4 °F 70% 30.06 in 10.0 mi South 4.6 mph - N/A   Scattered Clouds
3:55 AM 37.4 °F - 28.4 °F 70% 30.05 in 10.0 mi Calm Calm - N/A   Mostly Cloudy
4:15 AM 35.6 °F 31.7 °F 28.4 °F 75% 30.03 in 10.0 mi SSE 4.6 mph - N/A   Scattered Clouds
4:35 AM 35.6 °F 31.7 °F 30.2 °F 81% 30.03 in 10.0 mi SSE 4.6 mph - N/A   Clear
4:55 AM 37.4 °F 32.1 °F 30.2 °F 75% 30.02 in 10.0 mi SSE 6.9 mph - N/A   Clear
5:15 AM 37.4 °F 32.1 °F 30.2 °F 75% 30.00 in 10.0 mi SSE 6.9 mph - N/A   Clear
5:35 AM 37.4 °F 30.3 °F 30.2 °F 75% 30.00 in 10.0 mi SSE 10.4 mph - N/A   Scattered Clouds
5:55 AM 37.4 °F 31.4 °F 30.2 °F 75% 29.98 in 10.0 mi SSE 8.1 mph - N/A   Scattered Clouds
6:15 AM 37.4 °F 30.8 °F 30.2 °F 75% 29.96 in 10.0 mi SSE 9.2 mph - N/A   Clear
6:35 AM 37.4 °F 28.9 °F 30.2 °F 75% 29.95 in 10.0 mi SSE 13.8 mph - N/A   Clear
7:35 AM 37.4 °F 33.8 °F 30.2 °F 75% 29.92 in 10.0 mi South 4.6 mph - N/A   Scattered Clouds
7:55 AM 37.4 °F 32.8 °F 32.0 °F 81% 29.93 in 10.0 mi South 5.8 mph - N/A   Scattered Clouds
8:15 AM 39.2 °F 35.0 °F 32.0 °F 75% 29.93 in 10.0 mi South 5.8 mph - N/A   Scattered Clouds
8:35 AM 39.2 °F 34.2 °F 32.0 °F 75% 29.93 in 10.0 mi South 6.9 mph - N/A   Drizzle
8:55 AM 37.4 °F - 32.0 °F 81% 29.92 in 10.0 mi Calm Calm - N/A Rain Light Rain
9:15 AM 37.4 °F - 33.8 °F 87% 29.90 in 4.0 mi Calm Calm - 0.01 in Rain Rain
9:35 AM 37.4 °F 34.9 °F 33.8 °F 87% 29.89 in 5.0 mi SE 3.5 mph - 0.04 in Rain Light Rain
9:55 AM 37.4 °F 32.8 °F 35.6 °F 93% 29.88 in 5.0 mi ESE 5.8 mph - 0.06 in Rain Rain
10:15 AM 37.4 °F 32.8 °F 35.6 °F 93% 29.86 in 5.0 mi ESE 5.8 mph - 0.01 in Rain Light Rain
10:35 AM 35.6 °F 29.2 °F 35.6 °F 100% 29.83 in 7.0 mi SE 8.1 mph - 0.02 in Rain Light Rain
10:55 AM 35.6 °F 27.5 °F 35.6 °F 100% 29.80 in 10.0 mi SE 11.5 mph - 0.03 in   Drizzle
11:15 AM 35.6 °F 29.2 °F 35.6 °F 100% 29.78 in 10.0 mi SE 8.1 mph - N/A   Overcast
11:35 AM 35.6 °F 26.6 °F 35.6 °F 100% 29.75 in 10.0 mi ESE 13.8 mph - N/A Rain Light Rain
11:55 AM 37.4 °F 30.3 °F 35.6 °F 93% 29.71 in 10.0 mi ESE 10.4 mph - N/A Rain Light Rain
12:15 PM 37.4 °F 30.8 °F 35.6 °F 93% 29.66 in 10.0 mi SE 9.2 mph - N/A Rain Rain
12:35 PM 35.6 °F 30.7 °F 35.6 °F 100% 29.64 in 7.0 mi East 5.8 mph - N/A Rain Light Rain
12:55 PM 35.6 °F 32.8 °F 35.6 °F 100% 29.60 in 5.0 mi East 3.5 mph - N/A   Light Drizzle
1:15 PM 35.6 °F 29.9 °F 35.6 °F 100% 29.57 in 1.8 mi East 6.9 mph - 0.04 in Rain Rain
1:35 PM 35.6 °F 32.8 °F 35.6 °F 100% 29.54 in 3.0 mi East 3.5 mph - 0.08 in Rain Rain
1:55 PM 35.6 °F 32.8 °F 35.6 °F 100% 29.54 in 1.8 mi West 3.5 mph - 0.14 in Rain Rain
2:15 PM 35.6 °F 29.2 °F 35.6 °F 100% 29.51 in 2.0 mi East 8.1 mph - 0.02 in Rain Rain
2:35 PM 37.4 °F 32.8 °F 37.4 °F 100% 29.49 in 5.0 mi East 5.8 mph - 0.04 in   Drizzle
3:15 PM 39.2 °F - 39.2 °F 100% 29.45 in 5.0 mi Calm Calm - N/A   Drizzle
3:35 PM 39.2 °F 37.0 °F 39.2 °F 100% 29.44 in 7.0 mi NNE 3.5 mph - 0.01 in Rain Light Rain
3:55 PM 37.4 °F 33.8 °F 37.4 °F 100% 29.44 in 10.0 mi NNW 4.6 mph - 0.01 in   Overcast
4:15 PM 39.2 °F - 39.2 °F 100% 29.43 in 5.0 mi Calm Calm - N/A   Light Drizzle
4:35 PM 37.4 °F - 37.4 °F 100% 29.43 in 7.0 mi Calm Calm - N/A   Overcast
4:55 PM 37.4 °F - 37.4 °F 100% 29.43 in 7.0 mi Calm Calm - N/A   Mostly Cloudy
5:15 PM 37.4 °F - 37.4 °F 100% 29.45 in 4.0 mi Calm Calm - N/A   Overcast
5:35 PM 37.4 °F - 37.4 °F 100% 29.44 in 5.0 mi Calm Calm - N/A   Overcast
5:55 PM 37.4 °F 34.9 °F 37.4 °F 100% 29.44 in 5.0 mi SSE 3.5 mph - N/A   Scattered Clouds
6:15 PM 35.6 °F - 35.6 °F 100% 29.44 in 0.2 mi Calm Calm - N/A Fog Fog
6:55 PM 37.4 °F 33.8 °F 37.4 °F 100% 29.44 in 5.0 mi South 4.6 mph - N/A   Clear
7:35 PM 37.4 °F 32.8 °F 37.4 °F 100% 29.45 in 5.0 mi SW 5.8 mph - N/A   Mostly Cloudy
7:55 PM 39.2 °F 34.2 °F 39.2 °F 100% 29.45 in 7.0 mi SW 6.9 mph - N/A   Overcast
8:15 PM 39.2 °F 35.9 °F 39.2 °F 100% 29.46 in 7.0 mi WSW 4.6 mph - N/A Rain Rain
8:35 PM 41.0 °F 37.1 °F 41.0 °F 100% 29.46 in 10.0 mi WSW 5.8 mph - N/A Rain Light Rain
9:15 PM 41.0 °F 38.0 °F 41.0 °F 100% 29.46 in 10.0 mi SW 4.6 mph - N/A   Scattered Clouds
9:35 PM 41.0 °F 38.0 °F 41.0 °F 100% 29.48 in 10.0 mi WSW 4.6 mph - N/A   Clear
9:55 PM 41.0 °F 34.7 °F 41.0 °F 100% 29.48 in 10.0 mi West 10.4 mph - N/A   Mostly Cloudy
10:15 PM 42.8 °F 36.6 °F 37.4 °F 81% 29.49 in 10.0 mi West 11.5 mph 18.4 mph N/A   Scattered Clouds
10:35 PM 42.8 °F 36.2 °F 35.6 °F 76% 29.51 in 10.0 mi West 12.7 mph 24.2 mph N/A   Clear
10:55 PM 42.8 °F 36.2 °F 33.8 °F 70% 29.52 in 10.0 mi West 12.7 mph 19.6 mph N/A   Scattered Clouds
11:15 PM 42.8 °F 35.8 °F 33.8 °F 70% 29.54 in 10.0 mi West 13.8 mph 19.6 mph N/A   Overcast
11:35 PM 42.8 °F 35.1 °F 33.8 °F 70% 29.54 in 10.0 mi West 16.1 mph 24.2 mph N/A   Overcast
11:55 PM 42.8 °F 35.8 °F 32.0 °F 66% 29.55 in 10.0 mi West 13.8 mph 32.2 mph N/A   Overcast